Regional Weather Roundup
Issued by NWS Albany, NY

Home | Current Version | Previous Version | Graphics & Text | Print | Product List | Glossary On
Versions: 1 2 3 4 5 6 7 8 9 10 11 12 13 14 15 16 17 18 19 20 21 22 23 24 25 26 27 28 29 30 31 32 33 34 35 36 37 38 39 40 41 42 43 44 45 46 47 48 49 50
000
ASUS41 KALY 210710
RWRALY

NEW YORK STATE HOURLY WEATHER ROUNDUP
NATIONAL WEATHER SERVICE ALBANY NY
300 AM EDT THU SEP 21 2017

NOTE: "FAIR" INDICATES FEW OR NO CLOUDS BELOW 12,000 FEET WITH NO
SIGNIFICANT WEATHER AND/OR NO OBSTRUCTIONS TO VISIBILITY.

NYZ032-033-038>043-046>054-057>066-NYZ062>081-082-084-210800-
EAST


CITY           SKY/WX    TMP DP  RH WIND       PRES   REMARKS
ALBANY         MOCLDY    65  62  90 N5        30.01F
GLENS FALLS    FOG       61  60  97 CALM      30.02S VSB 1/4
POUGHKEEPSIE   CLOUDY    69  63  81 N3        29.96F
NEWBURGH       MOCLDY    70  66  88 NE12      29.99F
MONTGOMERY     CLOUDY    63  62  97 CALM      29.98S
WHITE PLAINS   CLOUDY    69  64  84 NW9       29.94S
ISLIP          CLOUDY    73  65  75 N9        29.90S
NEW YORK CITY  CLOUDY    73  65  75 N10       29.93F
CENTRAL PARK   MOCLDY    73  63  70 VRB6      29.97F
$$

NYZ005>009-017-018-044>046-055-056-210800-
CENTRAL


CITY           SKY/WX    TMP DP  RH WIND       PRES   REMARKS
FULTON         FOG       59  58  96 CALM      30.04S VSB 1/4
SYRACUSE       PTCLDY    62  62 100 CALM      30.03S
ROME           PTCLDY    61  60  97 CALM      30.05S
ELMIRA         MOCLDY    60  60 100 SW6       30.06S FOG
BINGHAMTON     PTCLDY    62  61  96 N3        30.06F
MONTICELLO     PTCLDY    65  61  87 NW6       30.04F
$$

NYZ026>034-041>043-087-210800-
NORTH


CITY           SKY/WX    TMP DP  RH WIND       PRES   REMARKS
WATERTOWN      FOG       55  55 100 NE3       30.05S VSB 1/4
FORT DRUM      NOT AVBL
OGDENSBURG     FOG       60  59  97 CALM      30.07S VSB 3/4
MASSENA        CLOUDY    61  61 100 NE3       30.08S
SARANAC LAKE   FOG       49  49 100 CALM      30.09S VSB 1/4
PLATTSBURGH    PTCLDY    64  60  87 NW3       30.04F
$$

NYZ001>004-010>016-019>021-085-210800-
WEST


CITY           SKY/WX    TMP DP  RH WIND       PRES   REMARKS
NIAGARA FALLS  CLEAR     61  56  83 E5        30.08R
BUFFALO        CLEAR     63  60  90 CALM      30.09R
DUNKIRK        CLEAR     57  56  96 CALM      30.08R
JAMESTOWN      CLEAR     63  61  93 CALM      30.12R
WELLSVILLE     FOG       57  55  93 CALM      30.13R VSB 1/4
ROCHESTER      PTCLDY    59  58  96 W3        30.07R
PENN YAN       PTCLDY    61  58  90 CALM      30.07S
$$

             KEY
       WCI = WIND CHILL INDEX
       VSB = VISIBILITY
       HX  = HEAT INDEX
$$



USA.gov is the U.S. government's official web portal to all federal, state and local government web resources and services.